sat.trackr.live / text

‹ back to catalog

STARLINK-6218

NORAD 57368 · 2023-099AS

PAYLOAD ACTIVE UNKNOWN

§ Identity

Operator
Country
US
Launch date
2023-07-16
Launch site
AFETR
Launch vehicle
Mass (kg)
RCS (m²)

Purposes: comms

External: N2YO · Heavens-Above · Gunter

§ Orbital elements

Epoch: 2026-05-24T12:08:36.111264Z

Period
94.27 min
Inclination
43.0021°
Eccentricity
0.0001099
Mean motion
15.27574306 rev/d
Perigee alt
482.3 km
Apogee alt
483.8 km
Semi-major
6,861.2 km
B*
1.5043e-5
RAAN
173.5685°
Arg perigee
272.1369°
Mean anomaly
87.9357°
Rev number
15,779

§ Raw data

STARLINK-62181 57368U 23099AS  26144.50597351  .00000152  00000+0  15043-4 0  99982 57368  43.0021 173.5685 0001099 272.1369  87.9357 15.27574306157793

JSON: /api/v1/satellites/57368 · /tle

For live sub-satellite position, see the globe view (requires WebGL).

§ Visibility from observer

Set your observer location to see the next 7 days of passes ≥ 10°. The values pass through the URL so the page stays shareable.

No JS? Fill the form by hand. The geolocation button needs JavaScript.